Location: Wiesbaden
(50.0830°N, 8.2500°E)
Time: 07:10:39
(UTC+02:00)

ISS - Pass Details

Date: 25 May 2019
Orbit: 408 x 418 km, 51.6° (Epoch: 27 May)

Event Time Altitude Azimuth Distance (km) Brightness Sun altitude
Rises 00:13:34 0° 285° (WNW) 2,357 0.5 -17.4°
Reaches altitude 10° 00:15:40 10° 285° (WNW) 1,495 -0.5 -17.5°
Maximum altitude 00:19:01 86° 12° (NNE) 423 -3.8 -17.6°
Enters shadow 00:20:17 36° 103° (ESE) 684 -3.0 -17.7°
